Location: Clanezzo
(45.7500°N, 9.6000°E)
Time: 01:07:58
(UTC+00:00)

Cosmos 1340 Rocket - Pass Details

Date: 12 May 2021
Orbit: 527 x 559 km, 81.2° (Epoch: 23 June)

Event Time Altitude Azimuth Distance (km) Brightness Sun altitude
Rises 22:19:50 0° 338° (NNW) 2,757 7.8 -24.5°
Reaches altitude 10° 22:22:17 10° 325° (NW) 1,855 6.4 -24.6°
Maximum altitude 22:25:41 26° 269° (W) 1,124 4.5 -24.8°
Enters shadow 22:25:44 26° 268° (W) 1,124 4.4 -24.8°
